Theta_e
285 285 284 284 285 285 285 284 284 284 285 283 284 283 283 282 283 283 283 284 283 284 284 284 284 284 283 283 283 283 283 283 283 282 283 282 282 286 291 292 294 295 297 298 299 301 301 302 303 304 306 307 308 308 309 310 310 309 311 311 312 312 310 312 313 312 313 312 314 314 314 315 316 316 317 317 316 317 319 317 318 319 319 319 320
284 284 284 284 284 285 285 284 284 284 283 283 283 283 282 282 283 283 283 283 283 284 285 283 284 283 283 283 283 283 282 282 282 282 282 282 283 285 289 291 292 293 294 295 297 298 298 299 301 302 302 305 306 307 307 308 308 308 309 310 310 312 311 311 312 313 311 312 312 313 314 313 315 314 315 316 317 317 316 317 317 317 319 319 320
285 284 284 284 284 284 284 284 283 283 283 283 284 285 283 283 283 282 283 283 283 283 284 283 283 283 284 283 283 283 283 283 282 282 282 282 282 283 286 289 290 291 292 294 295 297 297 298 298 300 302 303 304 305 305 306 306 307 307 308 309 311 312 310 312 311 311 311 311 313 313 314 313 314 313 315 316 316 316 317 318 317 318 318 318
286 285 285 284 284 284 284 283 283 283 284 283 283 284 284 283 284 284 284 283 283 283 283 283 282 283 283 283 283 283 282 282 282 282 282 282 282 283 282 286 289 290 291 292 294 295 295 297 298 299 301 301 302 303 303 304 304 305 305 306 309 310 311 311 310 310 309 310 311 312 312 313 313 314 314 314 314 315 316 316 316 316 316 316 317
285 286 286 284 284 284 284 285 283 283 284 284 284 284 283 282 283 284 283 283 283 283 285 283 282 283 283 283 283 283 283 283 283 282 283 282 282 282 281 284 283 288 289 290 291 293 294 295 296 298 299 300 300 301 302 303 303 304 304 305 308 309 309 311 310 309 309 310 310 310 311 311 312 311 312 313 313 314 315 315 316 316 317 317 317
285 284 285 283 283 283 284 283 283 284 284 284 282 283 282 282 282 282 285 283 282 282 282 282 282 282 282 282 282 283 283 283 282 282 282 282 282 281 281 281 281 282 284 288 289 290 292 294 295 297 298 298 299 300 300 301 302 302 303 304 306 307 308 310 310 310 310 309 309 310 311 311 311 310 311 312 312 312 313 314 314 314 315 315 315
286 284 284 284 283 283 284 283 283 284 283 283 283 283 282 282 282 282 281 281 281 283 283 282 281 282 282 284 283 283 282 283 283 282 282 281 282 281 282 281 281 282 284 281 288 288 290 292 294 295 296 296 297 298 299 300 300 301 302 303 305 306 307 309 309 309 309 310 310 310 309 309 309 310 310 311 311 311 312 312 313 314 314 315 315
286 285 284 283 283 282 283 284 284 283 283 283 283 281 282 283 283 282 280 280 282 281 282 281 282 282 282 282 282 284 282 282 282 282 282 281 282 281 281 281 281 281 286 281 282 286 289 290 292 293 294 294 294 296 298 299 299 299 300 303 305 306 307 309 309 308 309 308 308 310 309 308 308 308 309 309 310 310 311 312 312 312 312 313 314
285 285 283 284 283 283 283 284 285 283 283 282 282 284 282 283 282 284 281 280 280 280 281 281 281 282 282 282 282 284 282 282 282 282 284 282 281 281 281 281 283 287 282 281 281 281 286 289 290 291 291 291 292 294 296 297 298 298 299 302 304 305 307 308 308 308 306 308 309 308 309 307 307 308 308 308 309 309 310 310 311 312 312 312 313
285 285 284 284 284 283 283 283 283 283 283 282 282 282 282 281 281 281 283 281 280 280 280 281 282 282 282 282 282 282 282 282 283 287 282 281 281 281 281 282 282 281 281 281 281 281 281 285 288 289 289 289 291 293 294 296 296 296 298 300 302 305 307 308 308 308 308 308 307 308 309 307 307 307 307 308 308 308 309 310 310 310 310 311 311
285 285 283 283 283 283 282 283 283 282 282 282 282 283 283 281 280 281 282 282 280 281 281 281 281 281 281 282 283 283 283 282 284 283 281 282 282 285 284 282 281 281 281 281 281 281 281 281 280 279 281 288 289 291 292 294 293 294 297 299 301 304 306 307 307 307 307 308 308 307 308 308 307 307 307 308 308 308 308 309 309 310 310 310 310
284 284 284 284 283 283 283 283 283 282 282 282 281 280 280 280 280 281 281 282 284 282 280 280 280 280 281 283 283 283 283 283 283 282 283 282 282 283 281 281 280 280 281 281 282 281 281 281 283 281 281 285 288 289 290 291 290 293 297 298 300 302 305 305 305 306 307 306 308 307 307 307 308 308 308 308 309 308 308 308 309 308 309 309 310
286 284 284 285 285 283 282 282 283 283 282 282 281 281 281 281 281 281 281 280 279 280 280 280 278 278 279 279 280 282 285 285 282 282 282 281 281 281 281 281 280 280 280 281 280 281 281 281 280 281 281 280 282 287 288 288 288 291 295 296 298 301 303 304 305 305 306 307 306 308 306 306 307 307 308 307 308 309 308 307 308 308 308 309 309
287 284 285 283 283 282 282 282 282 282 283 283 282 285 282 281 281 279 280 279 278 280 281 279 277 276 275 276 278 281 283 283 282 282 282 282 282 282 281 281 280 281 281 281 280 281 281 281 280 281 280 280 281 280 281 282 284 289 292 293 294 298 301 303 305 305 305 306 306 307 307 306 307 307 307 307 307 308 309 306 307 307 307 308 309
285 286 285 284 283 282 283 282 282 283 282 281 281 281 281 280 280 279 278 278 280 282 280 279 276 277 277 276 274 275 280 279 280 282 282 282 281 281 282 280 281 281 281 281 280 280 281 280 280 280 280 280 280 279 281 284 284 289 290 291 292 296 299 301 303 304 305 305 306 306 306 307 305 306 307 307 308 307 307 306 306 307 307 307 307
285 285 286 284 283 282 282 282 282 283 281 280 280 280 280 280 280 281 280 277 277 278 282 279 279 276 273 274 273 275 274 275 276 279 280 280 281 281 281 281 281 280 280 280 280 281 280 281 280 281 280 280 281 280 281 279 285 288 288 289 290 294 297 300 302 303 304 305 305 305 306 306 305 305 306 306 307 307 307 308 308 307 307 307 307
286 285 286 284 283 283 282 282 281 281 282 280 280 280 280 280 280 280 278 277 277 277 278 280 279 279 277 275 274 274 273 275 276 276 279 278 279 280 282 281 281 281 281 280 280 280 281 280 280 280 280 280 280 280 280 280 280 283 284 287 291 293 296 298 300 301 302 304 304 305 305 305 306 305 305 305 305 306 306 307 306 307 307 307 307
285 285 285 285 284 283 282 282 281 282 283 281 281 280 280 280 280 279 279 279 278 277 276 280 280 282 279 277 277 273 274 275 274 272 278 279 279 280 280 281 281 281 280 280 280 280 282 281 280 280 281 281 280 280 279 280 282 280 280 282 292 293 295 298 299 300 300 302 303 303 304 305 305 305 305 305 305 305 306 305 306 306 306 307 307
286 285 285 285 284 284 283 282 282 281 283 282 280 280 280 280 282 280 279 281 279 277 277 277 278 279 281 280 280 279 277 275 272 274 273 275 277 278 278 280 281 280 281 281 281 280 280 281 281 280 280 281 280 280 280 280 286 286 289 290 291 292 294 296 298 299 300 301 301 302 303 304 304 305 305 304 304 304 305 305 305 305 306 306 306
286 285 285 285 285 283 283 283 282 282 282 281 280 280 281 282 282 281 280 280 278 278 277 278 276 277 280 279 279 280 278 278 276 275 274 273 275 277 279 279 280 280 281 281 281 280 280 279 280 280 279 280 280 280 280 280 278 279 283 288 291 293 294 295 297 298 299 300 301 301 302 303 303 304 304 304 304 304 304 304 305 305 306 306 306
286 285 285 285 286 284 283 282 282 281 284 282 281 281 281 280 280 280 279 279 279 279 278 278 278 277 278 278 277 277 277 278 278 277 275 273 274 275 276 278 279 279 280 280 281 280 281 280 280 281 281 281 281 280 280 280 279 279 285 288 291 292 294 295 296 298 299 299 300 300 301 302 302 302 303 303 303 303 304 305 304 305 305 306 306
286 285 285 285 284 284 283 282 282 282 283 281 280 280 280 280 280 280 280 279 279 280 279 278 278 278 278 278 277 276 276 276 276 276 276 276 274 275 276 276 276 276 278 278 279 280 280 281 281 280 280 280 280 280 280 280 280 280 283 288 290 292 294 295 296 297 298 298 299 299 300 300 301 302 302 302 303 303 303 304 305 305 305 305 306
285 285 285 285 284 285 284 283 282 283 283 281 281 280 280 280 281 280 280 279 279 279 280 280 279 279 278 277 277 277 276 275 275 276 276 275 275 275 276 276 275 276 277 278 280 280 280 280 280 280 280 280 280 280 280 279 283 284 285 287 290 292 294 295 296 297 298 298 298 298 299 299 300 300 301 302 302 302 302 303 304 304 305 305 305
285 284 284 284 284 283 284 283 283 282 282 281 281 281 281 281 280 280 280 280 279 280 279 278 278 278 278 278 278 278 278 277 277 277 276 275 275 275 275 276 276 276 278 278 279 279 280 280 280 280 280 280 280 280 281 281 281 285 284 287 288 290 292 294 295 297 297 298 298 298 297 299 299 299 300 300 301 301 302 302 303 303 304 304 305
284 284 284 284 284 283 282 282 282 282 282 281 281 281 281 280 280 280 280 279 279 279 279 279 279 278 278 278 278 278 278 279 278 278 277 277 276 275 276 276 274 275 277 277 277 278 279 280 280 280 280 280 281 280 280 280 279 283 285 286 287 288 290 292 294 296 297 298 298 298 298 298 298 299 299 299 300 300 301 301 301 302 302 303 303
285 284 285 284 284 284 283 283 282 282 282 282 281 281 281 280 280 280 280 280 279 279 279 279 279 279 279 278 278 278 278 279 278 278 277 277 276 275 275 275 275 275 276 276 277 276 276 278 280 280 280 280 280 280 280 280 280 285 285 283 284 287 289 291 293 295 296 297 298 298 298 298 298 299 299 299 299 299 300 300 300 301 301 301 301
286 286 286 285 284 283 283 282 282 282 282 282 283 281 281 281 281 280 280 280 279 280 279 279 279 279 279 279 279 279 278 278 278 278 278 278 277 276 275 273 274 275 275 276 276 276 277 278 279 280 280 280 280 280 280 279 282 284 285 282 280 285 286 288 291 293 294 296 297 298 298 299 299 299 300 299 298 298 299 299 300 300 300 301 301
288 287 286 285 284 283 283 283 282 282 282 282 282 281 281 280 280 280 280 281 280 279 279 279 279 279 279 279 279 279 279 279 278 279 278 278 278 277 276 275 273 272 274 274 275 276 277 277 277 279 279 280 280 280 282 283 281 285 285 282 279 280 285 287 289 292 294 295 296 297 298 298 299 299 299 299 298 298 298 298 299 299 300 301 302
287 286 285 284 284 283 283 283 282 282 282 282 282 281 281 281 281 280 280 280 280 280 280 279 279 279 279 279 279 279 279 279 279 279 279 279 278 278 278 276 275 273 272 272 274 275 276 277 276 276 279 280 280 280 280 280 282 283 281 280 279 278 282 286 288 290 292 294 295 296 297 297 298 299 299 298 298 298 299 300 300 300 301 301 302
287 286 285 283 283 284 283 282 282 282 282 281 281 281 282 282 282 281 281 281 280 280 280 280 279 279 280 279 279 279 280 279 279 279 279 279 278 278 278 278 277 275 274 272 273 276 276 277 278 277 278 279 280 280 280 280 284 284 281 279 279 278 283 285 287 289 290 292 293 294 296 297 297 298 299 299 299 299 300 300 301 300 301 301 301
286 284 284 283 283 282 282 281 281 282 281 281 281 281 282 282 282 281 281 281 280 280 280 280 280 279 279 279 279 280 280 280 279 279 279 279 279 279 279 278 278 277 275 274 272 275 278 276 277 279 279 279 280 280 280 280 282 284 281 280 279 282 284 283 286 287 288 290 291 292 294 296 297 297 298 299 299 299 300 300 301 301 301 301 300
284 284 283 283 282 282 282 282 281 281 281 281 281 281 281 282 282 281 281 281 280 280 280 280 281 280 279 279 279 280 280 280 279 279 279 279 280 279 279 278 278 278 277 275 274 274 278 278 278 279 279 279 279 279 279 280 281 286 281 280 280 283 281 280 284 285 286 288 290 291 292 294 296 297 297 298 298 299 299 299 300 300 300 299 298
284 283 283 282 282 282 281 281 281 281 281 281 282 282 281 281 280 280 280 280 280 280 280 280 281 280 279 279 279 280 280 279 279 279 279 279 279 278 278 278 277 278 277 276 274 274 277 279 279 279 280 280 279 279 278 279 279 280 283 281 280 279 279 279 278 283 285 286 288 289 290 291 293 294 295 296 296 297 297 297 298 298 297 296 296
283 283 282 282 282 281 281 280 280 281 282 282 282 281 281 280 281 282 281 280 280 280 280 280 280 280 280 279 279 280 280 279 279 279 279 279 278 278 278 278 277 277 278 276 275 275 274 277 277 279 279 280 278 280 279 279 279 279 278 279 279 279 279 278 278 278 283 285 286 287 289 289 290 290 291 292 292 293 293 293 293 293 294 294 294
282 282 282 282 281 281 280 280 280 280 281 281 281 280 280 280 280 280 281 280 280 280 279 280 280 280 280 279 279 280 280 279 279 279 279 278 278 278 278 278 278 278 278 278 276 275 275 276 278 277 278 279 278 278 279 280 280 280 279 279 278 279 279 279 278 278 282 285 286 287 288 289 289 290 290 290 290 290 290 290 290 290 291 291 292
281 281 281 282 282 281 281 281 281 281 281 280 280 280 279 279 279 279 279 280 280 280 280 280 280 280 279 279 279 279 279 279 279 279 279 278 278 278 278 278 278 278 278 278 278 276 276 275 277 277 278 278 278 279 279 280 279 279 279 279 279 278 278 279 278 278 280 284 285 286 287 287 288 289 289 289 290 290 290 290 290 289 289 290 290
282 281 282 281 282 281 282 281 281 281 281 280 280 280 280 279 279 280 279 280 280 280 280 280 281 280 280 279 280 280 280 279 279 278 279 278 278 278 278 278 278 278 278 278 278 278 276 275 276 277 278 278 279 279 279 278 278 279 279 278 278 278 278 278 278 279 282 284 284 285 285 286 287 287 288 288 289 289 289 290 289 289 289 289 289
281 281 281 282 283 282 281 281 281 281 281 280 280 280 279 279 279 279 279 279 280 280 280 280 280 280 280 280 280 280 280 279 279 279 279 278 278 278 278 278 278 278 278 278 278 277 277 276 276 276 277 277 277 278 279 279 277 277 277 278 278 278 278 277 278 278 278 278 278 280 283 285 286 287 287 287 288 288 288 288 289 288 288 288 288
281 281 282 281 282 281 282 282 281 281 280 279 279 279 279 279 279 279 279 279 279 280 280 280 280 280 280 280 279 280 279 279 279 279 279 279 279 278 278 278 278 278 277 277 277 277 276 276 276 276 276 277 277 276 278 278 278 277 276 276 276 277 277 277 277 278 278 278 281 282 281 281 282 282 284 286 287 288 288 288 287 288 288 288 288
282 282 282 283 283 282 282 282 282 282 281 280 280 279 279 279 279 279 280 280 280 280 280 280 280 280 280 280 280 280 280 280 279 279 279 279 279 278 279 278 278 277 277 277 277 277 276 276 276 275 276 276 277 277 278 277 276 276 277 276 275 275 276 277 277 276 277 277 277 277 281 282 282 282 284 284 284 285 285 286 286 286 287 287 288
283 282 283 283 283 282 282 282 282 282 282 282 281 281 280 280 280 280 280 280 280 280 280 280 280 280 280 280 280 280 280 281 282 283 282 282 279 278 278 278 277 277 277 277 277 276 276 276 275 276 276 276 276 276 276 275 275 275 276 277 276 276 276 276 277 278 277 277 277 277 276 277 277 278 278 277 278 282 282 284 284 285 286 287 288
282 283 283 283 283 282 282 282 282 283 282 282 283 285 286 283 282 281 281 281 281 281 280 280 280 280 280 280 281 282 282 282 282 283 284 284 284 282 280 279 278 277 277 276 276 276 276 275 275 275 275 275 275 276 276 276 277 277 276 276 275 276 276 276 276 277 278 277 276 276 276 277 276 276 276 276 277 278 278 279 279 282 284 287 287
282 282 282 282 282 282 282 282 282 282 282 283 284 288 288 288 285 283 281 281 281 281 280 280 280 280 280 280 280 280 281 281 281 283 284 284 284 284 284 284 283 280 277 276 276 276 276 276 276 276 276 275 276 276 276 277 277 276 276 276 276 276 275 274 273 276 277 277 276 276 276 277 276 275 275 275 276 276 277 277 281 282 284 285 286
282 281 282 282 281 281 282 281 281 281 281 284 287 287 288 289 287 284 282 281 281 280 280 280 280 280 280 280 280 280 280 280 279 279 281 282 283 284 284 284 284 285 285 281 278 277 277 276 276 276 276 276 276 277 277 277 276 277 277 277 276 275 275 274 274 274 276 277 276 275 275 277 276 275 275 275 276 276 277 279 282 283 284 284 285
280 280 280 280 280 280 280 280 280 281 280 284 286 287 288 288 289 287 283 282 281 280 280 280 280 280 280 280 280 280 281 281 281 280 280 280 282 283 283 283 284 284 285 285 285 282 281 279 278 278 278 278 277 277 278 278 278 277 277 276 276 276 276 275 275 276 277 276 276 275 274 276 276 275 274 276 276 276 277 280 282 283 284 284 285
280 280 280 280 280 280 280 279 279 280 280 283 287 287 287 287 288 287 283 282 281 281 280 280 280 280 280 280 280 280 280 280 280 280 280 280 280 279 279 279 279 280 282 283 284 284 283 281 280 278 279 280 278 279 280 281 278 277 277 276 277 276 276 276 277 278 279 278 275 275 274 275 276 275 274 275 276 276 276 278 282 283 284 284 284
279 280 279 279 280 280 279 280 279 280 280 285 286 287 287 287 288 287 282 281 280 280 280 280 280 280 280 280 280 280 280 280 280 281 280 280 280 280 280 279 279 279 279 279 279 280 280 280 280 280 280 280 280 280 281 281 280 280 279 278 278 278 278 279 278 279 278 280 277 276 272 275 275 274 274 275 276 275 276 279 282 283 283 284 284
279 279 279 279 279 279 279 279 279 279 279 284 286 286 286 287 288 283 281 280 280 280 280 280 280 280 280 280 280 280 280 280 282 284 284 283 282 281 281 281 281 281 281 282 284 283 282 281 281 280 280 281 283 281 281 281 281 281 281 280 280 278 277 275 274 276 276 278 278 275 273 274 276 274 274 276 276 275 276 275 279 282 283 283 284
278 279 279 279 279 279 279 279 279 279 279 282 285 285 286 287 285 282 281 280 280 280 280 280 280 280 281 281 281 281 281 281 283 285 285 285 282 282 282 282 282 282 282 283 285 286 286 285 285 285 285 285 286 286 286 286 284 283 281 279 277 277 275 273 274 274 274 277 277 277 274 273 275 275 274 275 275 274 275 275 276 279 282 283 283
278 278 278 278 279 279 279 279 279 279 279 281 284 285 286 286 285 282 281 280 279 279 279 280 280 280 281 281 282 281 281 281 284 284 284 283 281 280 279 279 279 280 280 282 283 283 285 285 285 285 285 285 285 286 287 287 286 285 281 278 279 279 276 275 273 274 275 276 276 278 274 273 275 275 273 274 274 274 274 275 276 277 280 281 283
278 278 279 278 278 278 279 279 280 279 279 279 283 284 285 285 284 281 281 279 278 278 278 279 280 281 281 282 282 281 280 281 283 284 284 281 278 278 279 279 278 279 280 282 281 281 281 281 281 281 282 283 283 283 283 284 285 284 282 281 281 279 277 277 276 275 273 274 277 278 274 274 275 274 274 271 270 273 275 274 275 275 276 276 277
Wind_Speed
4 4 3 3 3 3 3 4 3 4 5 5 5 5 5 5 5 5 5 5 5 5 3 5 5 4 3 3 4 4 4 4 4 4 4 5 5 9 17 17 17 18 18 18 18 18 19 20 21 21 20 20 21 20 21 22 22 22 21 21 21 20 18 17 17 17 17 16 16 15 14 14 12 13 14 14 15 14 13 13 13 12 12 12 12
3 3 4 4 3 4 3 3 4 3 4 5 5 4 5 4 4 4 5 5 5 5 3 4 5 4 3 3 3 4 3 3 4 4 4 4 6 5 13 16 17 17 17 17 18 17 17 18 18 18 19 19 19 20 20 20 20 20 20 21 21 21 19 17 17 17 16 16 15 14 13 13 14 14 13 13 14 15 13 13 13 13 13 13 13
1 3 3 4 3 3 4 3 3 3 3 3 4 4 5 4 4 5 5 4 6 5 4 5 5 4 3 3 3 4 3 3 3 3 3 4 4 4 5 14 15 16 16 17 17 16 16 17 17 17 17 17 18 18 18 19 19 19 19 20 20 20 19 18 17 16 15 15 15 14 13 12 12 13 13 13 13 14 14 14 13 14 14 13 13
0 1 2 4 1 2 3 3 3 3 3 3 5 5 4 3 4 4 5 4 5 4 4 4 5 4 4 4 4 4 4 3 4 3 3 3 4 5 3 5 11 15 15 17 16 16 16 17 16 17 17 17 17 17 18 18 17 16 17 19 20 19 18 17 16 15 15 15 14 13 13 12 11 12 12 12 12 12 13 14 14 15 15 13 14
1 1 2 4 2 2 1 2 2 4 4 3 4 5 4 4 5 3 5 5 4 4 4 4 4 5 4 4 4 4 3 4 5 3 3 3 3 5 3 4 3 9 13 15 16 16 16 16 16 16 16 16 16 16 16 16 17 16 16 18 19 19 18 18 16 16 15 15 14 13 13 12 11 11 12 12 12 12 12 12 13 13 14 15 14
1 3 3 3 3 3 0 1 2 4 4 3 3 5 4 4 5 5 4 5 5 5 4 5 6 5 4 4 3 4 4 5 5 4 3 3 4 4 4 3 4 4 3 11 14 15 15 16 16 16 16 16 16 16 16 16 16 16 16 17 18 19 16 16 16 16 15 14 14 14 12 11 10 10 10 10 11 12 11 12 12 13 13 13 14
1 2 4 3 3 3 1 0 2 4 5 3 4 4 4 4 5 6 4 4 5 6 4 5 5 6 5 4 5 5 4 4 5 4 3 3 3 4 4 3 4 4 4 3 7 13 14 15 16 16 16 15 15 16 16 15 15 15 15 15 17 17 15 15 15 14 15 14 12 13 12 11 10 9 10 11 10 11 11 11 11 12 12 13 13
1 2 3 3 3 3 2 0 2 3 5 4 3 3 3 4 4 4 6 5 5 6 5 5 5 6 6 6 6 5 5 5 5 4 4 3 5 3 3 3 3 4 4 3 4 6 14 14 15 16 16 16 16 16 16 15 15 14 14 15 15 15 15 16 15 13 12 13 13 12 13 11 10 10 10 10 10 11 11 11 11 12 12 12 13
2 2 3 4 2 2 3 0 1 3 4 4 4 2 2 3 4 5 4 6 6 5 5 6 6 5 6 6 6 5 5 6 4 5 4 4 4 4 3 3 3 5 3 5 3 4 8 14 14 15 15 16 16 16 15 15 14 14 13 14 15 14 14 14 17 12 12 12 12 12 12 10 9 10 10 10 10 10 11 11 11 11 11 11 11
3 3 3 3 3 3 3 2 1 3 5 4 5 4 2 2 4 4 5 4 6 6 6 5 5 7 7 7 7 7 7 6 5 4 4 4 4 4 4 5 4 4 4 3 4 5 3 7 13 13 14 15 16 16 15 15 14 14 13 13 15 13 13 13 13 12 10 13 14 11 11 12 9 9 9 10 10 10 10 11 11 11 11 11 11
4 3 3 4 4 3 3 3 1 4 4 4 4 3 2 3 4 5 4 5 6 6 6 5 7 7 8 9 7 7 7 6 5 4 6 5 4 4 3 5 4 4 3 4 4 4 4 4 4 4 6 13 15 15 15 15 15 14 14 13 13 14 14 14 14 12 13 13 15 14 10 10 11 10 9 10 10 10 10 10 10 10 11 11 11
4 4 4 3 4 4 4 2 2 4 4 4 4 2 3 3 4 4 6 5 5 6 3 5 7 8 9 8 7 8 8 6 4 5 5 5 6 4 5 4 4 4 4 3 5 4 5 4 4 4 4 7 14 14 15 15 15 14 15 14 14 14 14 14 13 13 14 15 14 15 13 10 9 9 9 10 10 10 10 9 10 9 10 11 11
4 4 4 4 4 4 4 3 3 4 4 5 2 2 3 3 3 3 4 5 3 3 2 4 7 6 5 7 8 7 7 6 6 5 5 6 5 5 5 4 4 4 4 4 4 4 4 5 4 4 4 4 6 11 14 14 14 14 15 14 14 14 14 16 16 13 15 16 15 14 15 11 10 10 10 10 10 11 11 10 10 11 11 11 11
4 4 4 5 4 4 4 4 4 3 4 4 2 3 4 4 3 3 3 4 4 4 1 4 4 5 9 9 6 7 2 3 4 5 6 6 6 5 5 4 5 4 4 4 4 5 5 5 4 5 4 5 4 4 5 6 9 14 14 14 14 14 14 15 17 15 14 15 15 13 14 13 10 10 10 11 11 11 11 10 10 10 10 11 11
5 5 5 5 5 4 4 4 4 3 3 4 4 4 4 4 3 4 6 3 4 4 1 2 2 4 7 4 5 7 4 2 2 4 6 7 6 5 5 4 6 5 5 5 4 5 4 4 4 4 4 4 5 4 4 6 9 14 13 14 14 14 14 15 15 16 15 15 15 15 15 13 11 11 11 11 11 12 13 11 11 11 11 11 11
6 6 5 5 5 5 5 4 5 4 4 4 4 5 4 3 3 3 2 5 3 2 0 1 0 3 6 1 5 3 7 2 6 10 8 4 6 7 5 5 5 5 4 5 6 5 5 4 4 5 4 4 4 4 4 4 10 13 14 13 14 14 15 14 15 15 16 16 15 15 15 15 14 11 11 11 11 11 11 11 11 11 12 12 12
7 7 6 6 5 5 5 5 4 4 4 5 4 5 4 4 3 2 3 3 4 2 2 1 2 3 1 3 5 3 2 4 9 8 1 3 4 6 5 5 5 5 5 6 6 6 6 5 5 4 5 4 4 4 5 4 5 4 7 12 14 14 15 15 14 14 15 17 17 16 16 16 16 14 12 13 12 12 12 12 12 12 12 13 13
7 7 7 6 7 7 5 5 5 5 5 5 5 4 5 4 4 4 4 4 4 4 4 3 4 4 5 4 3 4 6 5 4 7 4 8 6 3 3 6 7 6 5 6 6 7 6 6 5 6 5 5 5 4 4 5 4 5 6 7 15 14 14 15 15 15 14 16 17 17 16 17 16 15 14 14 13 13 13 13 13 12 12 13 13
8 7 7 7 6 6 7 6 6 5 4 5 6 6 5 4 4 4 5 4 4 5 5 5 3 3 5 5 5 4 2 2 4 5 11 3 2 5 5 7 7 5 7 7 7 7 6 6 6 7 6 5 5 5 5 5 8 9 13 14 14 14 14 15 14 15 15 15 16 16 17 17 16 16 15 14 15 15 15 14 15 14 14 14 14
8 8 7 7 7 7 7 7 7 6 6 6 6 5 5 4 4 5 4 4 4 6 5 4 4 3 3 5 4 5 5 4 4 4 5 10 13 3 6 8 2 4 7 8 8 7 7 6 7 7 7 6 6 6 6 5 4 5 6 14 15 14 14 14 14 14 15 15 15 16 16 16 16 16 16 16 16 16 16 16 15 15 15 16 15
8 8 8 8 8 7 7 7 7 7 7 6 6 6 6 6 5 6 6 6 5 5 5 7 5 6 4 4 4 5 5 5 5 5 6 5 13 9 9 5 6 9 9 8 6 6 7 8 7 7 7 6 6 6 6 6 6 6 7 15 14 15 15 15 15 15 15 15 15 15 16 17 17 16 17 16 16 16 16 16 16 16 16 16 16
8 7 8 8 8 7 7 8 8 7 7 7 6 6 6 6 6 6 6 7 6 6 7 6 6 5 5 4 4 4 3 4 5 6 6 8 11 13 10 13 16 4 3 5 7 7 7 7 7 7 7 7 6 7 6 7 7 6 8 15 15 15 15 15 15 15 16 16 15 15 15 16 16 17 16 17 18 17 17 17 17 17 17 17 17
7 7 8 8 8 8 8 7 7 7 7 7 8 8 7 7 7 6 6 7 6 7 7 6 6 6 6 6 7 7 7 6 5 6 6 6 6 11 10 7 8 16 8 4 6 7 7 7 7 7 8 7 7 7 7 7 7 8 13 15 16 16 16 16 16 16 16 17 16 16 16 16 15 16 17 18 18 18 17 18 19 19 18 18 17
6 7 7 7 7 7 7 7 7 7 8 7 7 7 7 6 6 7 7 7 7 7 6 7 7 7 7 7 7 7 7 8 7 6 6 8 7 12 11 8 10 8 9 10 8 10 9 9 8 9 8 7 7 7 8 7 7 13 11 14 16 16 16 16 17 17 17 17 17 17 17 17 17 17 17 18 19 19 18 18 19 19 20 19 20
7 7 7 8 8 8 8 8 8 8 8 7 7 7 7 7 7 7 8 8 8 8 8 9 8 8 8 7 7 8 9 7 7 7 6 6 7 10 12 5 11 13 8 5 8 4 8 10 9 9 8 8 7 7 7 7 7 9 14 10 17 16 16 17 17 18 18 18 17 18 18 18 18 18 18 18 19 18 18 19 19 20 20 19 20
8 9 8 9 8 9 8 9 8 7 7 8 7 7 7 7 7 8 8 8 7 8 9 9 9 10 7 8 8 8 9 7 8 7 8 7 9 10 11 8 8 13 9 6 6 7 4 6 7 8 8 8 8 8 7 8 8 11 16 10 12 17 17 17 18 18 18 19 19 18 18 18 19 19 19 19 19 18 19 19 19 19 19 19 19
8 8 7 9 9 8 8 8 8 8 7 7 7 7 7 7 7 8 7 7 8 8 9 9 10 10 9 9 8 8 8 7 6 8 7 9 9 8 7 12 11 8 12 8 8 11 14 9 7 8 9 8 8 8 9 7 9 12 14 10 8 14 17 18 18 19 19 19 19 20 19 19 19 20 20 20 20 20 19 19 20 19 19 19 19
6 5 7 8 8 8 8 9 8 8 8 8 7 7 7 8 8 8 9 5 8 9 10 9 11 10 10 9 8 10 8 8 8 8 8 8 8 7 7 8 11 15 8 12 10 11 8 9 5 8 8 9 8 8 9 10 9 13 15 9 8 9 15 19 19 20 20 21 21 20 20 20 20 20 20 20 20 20 20 20 20 20 20 20 19
5 4 4 5 6 7 7 7 7 7 7 7 7 7 7 8 8 8 9 7 8 10 8 9 9 9 9 10 10 10 9 8 8 8 8 7 8 8 8 10 8 10 12 9 11 12 3 7 6 3 8 7 8 7 8 9 9 11 8 9 9 9 13 19 20 21 22 22 22 21 21 21 21 21 21 20 20 21 21 21 21 21 21 21 20
4 4 3 3 4 4 4 5 5 5 6 6 6 7 7 8 8 9 8 6 8 8 8 9 10 8 9 9 9 10 9 9 9 9 9 9 9 9 9 9 8 12 11 13 17 7 13 6 7 8 3 8 8 7 7 9 11 13 9 9 9 9 15 20 21 22 23 23 22 22 22 22 22 22 22 22 21 21 22 22 22 22 22 23 22
5 4 3 2 2 3 4 4 4 5 5 6 6 6 7 8 8 8 7 7 9 9 9 8 9 8 10 12 10 11 9 10 10 9 9 9 10 9 10 8 10 12 11 11 15 11 7 13 6 7 8 7 8 8 7 8 10 12 10 9 10 13 18 15 21 22 23 23 23 23 23 23 23 23 23 22 23 23 23 23 23 23 24 24 23
4 4 3 3 4 4 4 4 5 4 5 5 6 7 7 8 8 8 8 8 10 10 10 8 8 8 10 12 11 11 9 9 10 9 10 10 10 10 10 10 11 11 10 12 14 24 9 12 12 9 7 6 5 7 9 8 8 16 10 11 11 14 12 11 17 22 22 23 24 23 24 24 24 24 24 23 23 23 24 23 23 24 24 24 24
4 4 4 4 4 4 4 4 5 6 6 7 6 7 7 8 7 8 8 9 10 10 9 10 9 9 10 11 12 11 9 11 10 9 9 10 10 10 10 10 11 10 11 12 16 20 17 9 13 12 9 10 12 9 12 10 9 9 11 11 11 11 11 10 10 17 22 23 24 24 24 24 24 24 24 23 23 23 23 23 24 24 23 23 23
3 4 4 4 4 4 4 4 4 5 6 7 6 5 7 8 9 7 8 9 10 11 9 11 10 8 10 12 12 11 10 12 12 12 10 10 10 10 11 11 12 12 10 12 15 15 23 12 12 10 12 9 14 8 13 12 12 10 11 11 10 11 11 10 10 11 20 22 23 24 25 25 25 24 24 23 23 22 22 22 22 22 22 22 22
4 3 4 4 3 2 3 4 4 4 5 5 5 5 6 8 9 8 7 8 10 10 11 11 11 10 11 11 12 11 8 11 12 12 11 12 11 12 13 11 13 13 12 13 13 17 19 20 12 13 10 10 12 11 10 11 12 11 13 12 11 10 10 11 11 10 17 22 24 25 25 25 25 25 24 24 23 22 22 22 22 21 21 21 21
4 4 4 4 3 3 3 4 4 5 5 5 5 5 6 7 8 8 8 8 9 10 11 11 11 11 11 12 12 11 11 13 13 12 11 11 11 12 13 13 13 14 12 12 15 15 17 18 18 11 11 10 12 10 9 10 11 11 11 12 11 12 12 11 12 11 14 22 24 25 25 25 25 25 25 25 24 23 23 23 22 22 22 22 22
5 4 5 4 4 4 4 4 4 4 5 5 5 6 6 6 7 8 8 8 9 10 11 11 11 11 12 12 13 12 12 13 13 12 11 13 12 12 13 12 12 12 11 12 14 14 16 20 19 13 11 12 11 12 10 12 12 12 11 13 12 13 12 12 10 11 16 22 24 25 25 25 25 25 26 25 25 24 24 23 23 23 23 23 23
5 5 5 5 4 4 4 5 4 4 4 4 5 6 6 6 7 7 8 8 9 10 10 11 11 11 12 13 12 12 13 14 14 13 12 13 12 13 14 13 12 12 13 14 13 15 16 18 17 18 13 13 13 12 10 11 13 14 13 12 12 13 12 12 12 10 9 10 10 12 18 21 24 27 26 25 25 25 25 24 23 23 23 23 24
5 5 5 5 5 4 5 4 5 5 5 4 5 6 6 7 7 8 8 8 10 10 10 11 11 11 11 11 12 12 13 13 15 14 13 13 12 14 13 13 13 13 13 13 13 15 16 17 17 16 16 14 11 15 10 9 13 13 14 13 14 11 10 12 14 10 9 11 14 19 17 15 16 15 20 25 25 26 25 25 24 25 24 25 24
5 5 4 5 5 4 5 5 5 5 5 5 5 5 6 7 7 8 8 9 10 10 10 11 11 11 11 12 12 13 13 13 14 14 13 13 12 13 12 11 12 13 13 13 13 14 15 16 16 16 14 14 12 11 10 9 12 13 10 11 17 16 12 11 13 12 9 10 11 10 14 17 18 21 24 24 26 26 26 24 26 25 25 25 25
5 4 4 5 5 5 5 5 6 5 5 6 5 5 6 7 7 9 9 10 10 11 11 11 11 11 11 11 12 12 13 16 20 19 18 15 12 13 13 10 12 12 13 12 12 13 14 14 17 14 15 16 14 12 12 12 13 15 10 10 15 15 12 13 12 11 11 11 11 11 11 11 11 11 10 11 12 19 20 24 19 25 25 25 26
5 5 5 5 5 5 6 6 5 5 5 5 7 12 11 8 8 7 8 9 10 11 11 12 11 11 12 12 12 16 19 20 21 21 20 21 23 19 16 13 13 13 13 13 14 13 13 16 16 15 16 17 14 12 13 13 11 11 13 12 15 15 13 16 15 11 9 11 12 13 12 9 10 11 10 12 11 12 10 11 11 13 19 25 26
6 6 5 6 6 6 6 7 7 6 5 6 12 11 12 15 10 8 8 9 9 10 11 12 12 12 10 11 11 13 14 15 16 19 20 22 22 24 26 24 20 17 15 16 16 14 14 15 16 14 16 18 17 12 13 13 12 13 13 13 13 14 14 15 18 11 8 11 12 13 14 9 10 12 11 12 11 10 10 11 19 23 24 24 25
7 5 6 5 5 5 6 6 7 7 7 9 14 15 15 13 14 10 8 8 8 8 10 11 11 11 12 12 10 9 10 12 13 13 15 19 22 23 25 25 26 27 26 20 17 16 15 15 16 16 15 17 17 13 13 12 13 13 14 13 14 14 15 16 15 15 4 10 12 12 14 7 9 12 13 11 10 11 11 15 21 23 24 25 25
5 6 6 6 7 7 6 7 9 10 8 12 15 17 18 18 17 16 9 8 9 9 10 11 12 12 11 12 12 10 9 15 14 13 13 14 16 21 23 25 26 27 27 30 28 21 17 17 17 19 16 16 17 16 12 14 13 15 14 14 14 15 15 16 16 14 11 6 9 12 14 9 8 11 12 11 9 10 11 17 22 23 24 24 25
7 7 7 8 8 8 8 7 7 8 9 13 18 20 20 21 21 18 10 9 9 9 10 11 11 11 12 12 12 12 10 10 10 12 13 14 14 15 14 13 13 16 21 26 26 28 25 20 19 20 19 16 17 16 15 14 15 15 15 16 15 16 16 18 17 16 13 5 10 11 14 12 7 9 13 9 8 10 10 14 21 23 24 24 24
7 7 7 8 7 7 8 8 7 8 9 16 18 20 20 22 23 18 10 9 9 9 9 10 11 11 12 11 12 13 13 11 9 11 13 14 14 15 15 15 14 14 14 13 14 14 15 15 17 19 20 19 19 19 18 16 17 17 16 18 18 18 17 16 16 16 14 12 12 10 17 13 5 10 12 9 7 9 9 14 21 22 24 24 25
6 5 6 5 8 9 8 9 9 9 9 16 18 19 22 22 25 14 12 12 12 11 12 11 11 11 10 11 12 13 13 12 13 20 19 17 16 17 18 17 16 14 13 14 19 19 19 18 17 18 17 19 21 20 19 17 15 16 15 15 15 15 14 15 16 12 13 11 11 10 13 13 8 10 11 7 7 10 9 8 15 22 23 24 25
8 8 7 8 8 9 10 10 11 11 10 13 18 20 21 23 19 13 13 12 12 13 13 13 12 11 11 11 12 12 14 13 18 23 26 24 17 17 17 18 17 16 16 13 18 23 26 30 31 32 32 33 32 33 33 35 25 18 14 13 14 12 13 15 16 13 13 10 9 12 12 15 11 9 11 9 9 11 10 9 8 15 22 23 25
8 8 7 8 8 8 10 11 11 12 12 13 18 20 21 22 20 15 12 12 13 14 14 13 12 12 13 18 15 12 13 14 21 34 34 24 18 19 20 21 21 19 18 16 15 15 21 26 28 29 31 31 34 35 34 33 34 26 18 19 16 13 14 13 16 13 12 10 10 10 11 15 10 6 9 9 7 9 9 9 9 10 17 20 25
8 7 7 8 9 8 8 10 13 13 12 13 16 18 21 22 19 13 12 12 14 15 14 14 13 12 11 9 14 17 19 22 32 31 33 28 20 18 19 19 20 20 18 17 17 17 16 16 17 18 19 21 20 19 20 29 31 28 21 20 16 16 16 15 14 12 12 12 10 11 12 13 11 9 10 7 10 10 9 9 11 11 11 11 12
Wind_Direction
352 346 337 351 332 344 345 351 351 350 347 352 352 341 336 333 341 340 334 326 324 329 344 333 330 340 8 343 335 329 335 340 334 337 343 338 338 335 344 346 345 348 348 350 350 350 352 351 351 349 346 346 347 349 348 349 351 351 351 351 346 346 348 351 350 348 352 352 354 354 353 355 359 2 4 7 9 7 7 11 8 5 4 1 0
356 335 340 335 346 347 341 353 343 352 353 353 338 324 318 323 328 324 323 314 316 311 336 329 319 324 344 328 328 312 320 332 325 330 337 340 331 323 342 344 344 346 347 347 348 349 350 349 348 345 343 345 346 346 346 347 346 347 347 346 342 340 341 342 345 347 348 350 352 353 356 353 353 353 0 4 6 12 3 9 11 13 7 8 5
21 331 325 315 343 348 330 346 342 356 340 333 321 309 305 319 325 319 309 312 312 307 329 320 303 315 320 317 302 307 307 319 313 326 337 330 323 322 333 343 342 345 346 345 345 346 348 347 345 346 342 343 344 343 344 343 342 343 345 343 337 336 338 340 340 343 345 347 350 351 352 355 357 353 351 2 3 9 6 9 11 16 15 11 8
6 297 307 294 328 320 323 345 333 350 326 312 330 310 307 318 317 317 309 311 308 321 323 324 312 308 318 314 318 305 307 309 307 312 317 322 318 318 327 330 337 341 344 343 341 342 344 343 345 344 343 342 341 343 340 340 336 337 340 341 333 332 337 336 335 341 342 344 345 348 345 347 350 354 356 357 2 6 5 6 7 14 11 13 14
313 289 292 297 299 279 344 318 344 338 315 313 340 312 318 337 316 323 322 319 324 323 321 317 307 303 311 302 315 307 304 312 296 307 311 297 314 308 320 327 319 337 338 339 338 340 339 339 341 342 342 341 343 341 338 339 336 330 336 338 329 328 332 334 336 338 339 340 342 344 345 343 342 343 351 352 355 358 3 6 8 10 7 9 16
346 310 289 283 295 282 241 309 6 323 301 323 331 307 320 345 316 324 324 330 321 315 321 318 302 297 297 295 306 298 308 305 296 287 292 295 296 298 311 314 322 315 317 330 335 338 333 335 339 340 341 341 341 339 338 339 338 332 333 333 323 325 327 328 335 342 343 338 339 342 342 340 338 339 346 350 350 354 358 359 3 5 5 8 9
226 260 300 281 294 303 312 73 348 303 301 309 311 305 338 331 317 318 322 320 316 307 316 310 310 311 302 300 295 284 297 293 289 292 290 290 291 284 297 308 309 304 302 305 327 328 329 333 334 337 338 340 342 338 338 336 337 338 336 326 320 320 323 329 332 342 341 332 345 341 340 336 336 337 341 345 346 350 351 354 357 358 1 3 5
256 253 278 291 281 296 280 59 320 297 302 299 305 312 326 320 312 319 326 315 316 309 319 317 314 309 307 303 287 282 274 273 283 284 279 288 280 282 285 298 298 284 311 309 305 309 324 330 332 334 338 339 339 338 338 336 336 335 335 324 321 322 328 328 324 326 345 340 332 345 341 332 333 336 340 344 345 346 347 350 351 354 354 354 358
231 251 245 270 288 301 313 8 298 289 282 285 290 285 304 314 310 315 315 310 310 307 311 311 306 298 294 290 280 274 269 264 261 273 276 278 277 280 287 288 280 298 287 288 298 293 311 325 326 331 333 334 334 337 337 336 336 334 330 327 323 323 326 326 332 334 334 343 343 337 340 330 329 333 336 338 340 338 342 344 348 349 346 346 351
207 240 258 270 248 249 256 271 259 289 280 284 277 274 265 324 314 302 305 306 307 306 301 299 304 306 298 283 275 267 255 247 252 257 268 273 276 282 274 265 270 271 279 284 289 288 292 308 318 321 324 327 331 334 335 336 337 332 329 328 322 317 318 326 335 332 338 344 339 340 341 337 328 325 329 334 338 339 339 340 343 343 341 341 343
195 221 238 265 262 248 224 240 235 270 287 285 284 305 343 338 308 300 303 288 280 286 281 308 315 304 293 286 274 259 251 244 238 251 257 254 253 258 268 273 264 277 279 284 281 284 282 288 286 294 301 321 328 330 333 335 337 333 329 328 324 317 318 327 336 339 335 336 346 334 343 345 340 327 329 331 331 336 336 336 336 341 342 341 338
196 211 226 251 272 268 250 227 241 260 273 288 283 321 312 304 299 304 300 292 276 282 313 337 306 302 291 281 269 254 241 230 232 234 249 255 251 254 259 263 272 272 278 271 278 278 279 273 277 282 294 311 320 325 328 332 332 330 331 330 327 318 319 323 331 333 333 337 343 345 334 335 346 346 338 328 335 332 329 331 328 325 337 335 331
192 199 218 235 242 260 272 261 240 248 254 258 259 277 281 274 273 285 294 303 304 292 326 344 308 301 286 293 295 273 238 217 218 234 247 246 243 246 252 256 263 272 259 270 273 272 272 270 269 281 285 292 305 315 322 325 327 323 327 331 328 319 318 326 325 325 331 331 333 344 344 332 333 338 338 334 332 330 329 327 330 332 330 330 333
202 197 213 222 233 237 242 236 237 244 261 261 265 257 266 268 271 308 293 315 297 291 298 23 345 357 327 328 311 303 279 177 215 249 250 246 230 231 237 236 255 253 259 265 266 268 268 262 272 277 277 282 286 299 301 310 312 312 324 329 327 321 320 324 322 326 327 325 328 329 338 330 327 328 331 328 325 327 324 319 321 320 322 325 330
201 204 204 217 220 229 241 238 232 231 266 284 266 250 236 250 270 271 308 308 287 277 125 86 264 317 277 289 315 359 330 352 318 277 271 248 224 230 234 243 253 245 250 253 260 265 261 262 272 269 271 272 274 279 292 300 304 311 323 325 323 322 321 317 316 317 318 318 321 324 327 332 330 325 323 324 325 324 323 324 326 320 319 319 320
198 205 205 208 210 218 227 240 241 215 218 251 273 276 264 266 275 285 310 310 336 308 100 150 176 25 352 341 283 321 317 354 341 299 264 212 185 225 224 243 240 256 258 254 257 255 253 254 259 261 257 261 262 267 274 275 297 313 315 317 314 317 320 314 313 314 314 314 313 317 321 322 322 324 320 318 321 323 324 327 321 316 314 315 315
198 202 201 204 207 213 220 231 229 227 216 227 246 250 254 231 221 242 262 250 291 295 312 214 187 161 163 343 331 347 278 302 338 290 345 13 282 249 244 240 242 243 244 254 255 249 247 247 247 247 251 250 256 257 260 270 292 275 295 303 304 311 315 314 310 309 310 310 312 312 313 312 315 314 318 320 316 318 319 317 315 319 320 315 311
200 200 202 199 204 206 210 218 230 228 220 222 235 255 257 239 225 211 238 247 239 273 281 297 201 197 187 186 184 225 305 313 5 303 323 281 261 262 240 243 243 238 238 255 255 254 246 246 240 243 239 241 242 245 248 259 262 271 265 267 294 304 312 315 313 310 305 307 305 304 305 305 309 313 312 309 311 313 313 311 307 309 314 314 310
201 200 200 203 203 202 205 209 217 221 223 220 231 234 237 231 220 213 219 238 235 249 255 271 309 246 204 213 238 250 234 322 281 328 320 325 349 317 307 284 254 237 251 248 247 248 244 239 244 243 241 234 235 239 237 243 268 278 285 293 296 296 304 309 310 306 304 306 303 297 296 299 303 305 304 304 306 306 305 304 300 297 302 311 306
197 201 199 200 203 206 201 206 210 217 218 222 223 228 233 237 220 205 213 220 224 234 255 254 243 276 195 230 236 239 232 228 220 243 264 303 305 261 247 283 303 252 249 254 251 236 244 241 245 247 245 240 234 229 232 234 228 248 262 279 284 289 296 302 302 302 300 301 303 299 291 291 296 299 299 302 301 302 306 303 297 296 300 304 305
198 198 200 199 202 204 202 205 209 213 216 223 224 219 222 225 222 215 218 229 224 233 238 246 246 247 266 256 238 237 236 219 224 212 234 273 282 293 303 283 256 258 262 256 250 238 237 240 237 235 237 239 228 229 229 229 232 234 255 270 276 285 290 295 296 296 296 297 300 301 295 288 286 287 292 294 293 294 298 300 297 291 290 295 303
202 201 200 201 203 202 204 208 210 211 213 217 221 223 223 224 218 211 210 221 224 227 230 238 233 248 240 250 260 275 273 257 228 220 237 214 259 289 300 311 316 280 234 283 272 259 247 241 239 236 237 237 233 230 227 225 222 233 241 261 271 277 282 287 290 291 291 291 293 296 297 293 288 288 286 284 287 289 291 293 293 293 295 293 298
194 207 204 199 204 203 206 210 209 211 216 215 218 217 219 220 223 222 223 220 223 228 241 238 233 240 244 237 237 223 227 239 232 220 216 243 271 269 279 281 282 304 295 232 263 261 252 243 241 241 236 234 232 228 228 227 226 227 238 254 264 270 275 282 286 287 286 286 286 289 289 288 286 285 284 285 285 281 280 284 287 289 291 290 292
199 202 209 203 202 207 208 208 211 211 218 215 220 217 218 216 218 218 226 229 228 229 231 239 235 236 237 231 237 231 236 236 242 243 241 258 259 279 284 297 288 247 286 302 269 262 257 248 240 237 232 227 226 224 225 226 228 232 241 252 260 264 270 279 283 284 282 281 281 284 285 286 285 280 279 277 276 278 279 279 279 282 285 287 289
213 210 211 202 201 204 206 210 215 215 218 214 220 216 215 215 218 221 220 222 221 223 230 234 229 232 237 231 232 234 239 234 237 241 247 251 253 275 273 271 276 288 281 279 295 266 244 248 234 232 226 224 223 221 222 223 228 228 241 246 251 256 264 272 279 282 280 277 276 277 280 281 279 280 278 277 276 275 275 275 275 275 276 280 285
213 216 206 199 203 206 205 212 214 215 216 217 216 217 215 216 218 222 223 223 217 220 228 233 233 237 233 239 233 235 240 230 233 232 238 242 253 252 277 277 267 282 286 279 265 292 287 228 234 229 223 218 221 217 218 224 225 231 238 239 246 254 259 268 275 276 277 276 274 273 274 275 274 275 276 275 275 276 276 276 273 272 272 274 275
216 220 200 198 202 201 205 208 210 213 214 217 217 216 218 222 223 228 229 220 222 223 231 228 234 235 234 234 242 241 242 235 224 237 231 232 242 248 257 284 284 266 288 274 268 234 259 273 225 232 218 218 215 213 218 217 222 226 233 241 242 243 254 264 270 272 273 272 272 272 271 271 274 275 273 272 274 272 271 272 271 270 270 270 270
232 211 210 196 197 201 203 209 207 211 213 215 215 215 217 222 230 229 235 220 229 228 235 233 240 238 238 239 242 245 242 241 237 243 234 235 236 242 240 252 272 288 278 286 287 271 212 250 271 225 218 216 216 216 213 213 222 223 232 233 231 243 251 259 264 268 272 271 268 267 268 269 270 270 271 270 269 269 268 266 267 267 266 265 265
253 235 218 204 200 197 204 210 211 212 216 218 218 218 218 225 232 232 237 230 234 236 237 238 241 241 242 237 238 247 245 242 243 240 241 239 237 237 226 237 239 262 288 280 263 291 223 211 255 266 213 219 224 218 216 220 221 218 224 227 233 238 243 251 260 269 270 268 267 266 267 267 268 267 265 264 263 262 262 263 262 262 262 263 264
276 275 245 210 211 204 207 218 219 220 222 225 224 225 224 233 236 240 239 235 240 243 239 240 244 240 244 243 238 246 243 241 241 237 239 238 240 236 236 235 224 241 255 272 280 222 281 242 243 265 223 228 224 226 217 223 222 221 225 227 230 234 238 248 258 266 268 267 265 265 264 265 265 263 263 261 260 261 263 262 262 262 262 262 262
305 300 285 267 225 231 222 233 230 231 233 231 229 232 229 239 239 247 241 236 242 247 243 238 243 238 243 247 243 246 242 245 243 240 239 238 240 239 240 232 233 236 246 260 278 267 193 276 245 236 250 236 223 225 226 228 224 223 227 228 231 233 241 248 254 260 262 263 264 264 264 265 264 263 261 260 260 259 258 259 259 259 259 258 258
306 295 287 262 254 245 238 233 242 243 239 236 230 232 234 239 243 247 247 242 247 249 250 240 244 240 244 248 247 248 248 248 247 242 242 240 239 243 238 235 240 233 240 252 250 270 238 265 276 265 254 263 225 232 238 239 232 231 231 233 234 235 242 246 251 253 256 258 260 262 263 263 263 263 260 258 257 257 258 258 259 260 259 258 259
310 313 292 265 251 243 240 238 236 242 241 246 235 237 239 248 246 247 252 248 252 255 255 254 248 251 251 254 253 251 250 253 252 248 247 242 242 242 241 240 242 235 234 241 254 268 273 233 262 267 262 257 261 238 250 241 240 236 235 237 233 234 238 242 244 247 249 252 255 257 259 261 262 262 260 258 256 256 256 257 257 257 260 261 259
310 296 288 272 257 248 246 251 249 244 247 248 250 242 248 252 256 253 259 259 262 265 265 267 262 255 258 260 261 258 248 252 254 253 248 249 243 244 242 238 241 242 227 243 252 260 275 270 258 255 267 245 265 228 250 253 252 246 240 240 237 232 239 238 240 242 241 246 250 254 255 257 259 259 258 257 256 255 255 256 257 258 257 257 258
316 318 306 301 282 265 261 265 266 267 261 259 258 254 255 257 262 264 260 262 265 268 268 268 268 265 264 262 264 261 254 255 253 253 250 249 246 246 248 242 246 243 239 235 251 262 267 275 267 271 258 260 252 262 245 250 254 246 248 244 242 240 235 234 236 240 239 242 246 252 255 256 255 255 254 253 252 251 249 249 250 250 251 253 253
341 322 333 322 319 298 287 282 278 277 279 278 274 267 264 265 267 269 270 266 267 269 270 271 270 268 265 269 266 262 258 258 257 255 249 245 246 248 250 248 248 250 244 242 242 254 269 275 274 259 271 265 262 258 260 258 255 249 243 252 243 243 240 235 233 239 238 241 246 250 254 254 253 252 253 253 251 250 248 245 244 244 245 245 245
343 346 335 338 333 321 296 282 282 279 276 276 279 277 275 272 272 274 273 272 270 270 271 271 272 270 269 267 271 268 265 265 263 258 256 252 250 251 253 253 254 254 252 247 249 249 261 266 274 268 266 266 264 265 258 266 264 258 250 246 246 246 244 241 241 240 242 244 246 248 249 250 251 251 251 251 251 250 248 246 244 243 242 241 241
346 343 340 335 334 323 313 300 291 285 277 272 273 276 279 281 279 275 274 273 272 273 272 272 270 267 268 269 270 269 269 267 270 267 263 259 257 256 257 259 257 259 258 255 253 255 257 263 268 279 267 265 274 258 253 254 261 268 263 255 253 247 248 253 243 241 239 238 239 244 245 246 247 248 248 248 249 250 249 246 244 243 241 239 239
349 344 336 335 323 322 310 306 300 293 283 272 269 274 276 277 276 276 275 273 275 274 272 272 270 267 265 266 268 267 267 267 270 270 270 268 264 262 261 264 262 262 261 260 257 258 259 265 269 265 274 268 259 273 260 245 257 255 266 275 267 252 243 244 256 245 237 240 235 234 233 229 231 236 243 246 247 246 247 247 246 243 241 239 237
352 345 337 328 315 314 305 304 298 294 289 278 270 266 268 269 273 276 276 278 278 275 275 274 274 272 269 268 266 266 264 265 266 269 266 269 268 268 264 264 265 264 264 264 263 261 263 265 266 272 268 271 269 260 269 261 263 259 246 259 269 271 258 247 243 252 243 235 243 239 237 239 239 239 241 243 245 245 245 246 245 243 240 239 237
349 344 336 331 325 320 307 301 298 299 296 288 275 271 271 274 273 281 282 281 278 280 278 275 273 273 272 268 266 264 262 261 261 262 263 261 266 272 268 260 264 263 265 265 264 263 265 265 269 269 271 270 266 270 270 259 254 262 262 250 261 265 268 267 255 238 241 243 246 241 237 222 233 231 228 233 235 239 243 243 243 244 241 238 237
346 340 341 338 339 330 326 320 312 307 299 291 285 280 278 276 275 270 278 278 281 281 282 281 276 269 269 270 268 264 264 266 266 265 263 261 260 259 265 267 263 263 263 266 265 264 265 267 266 271 271 269 268 262 267 264 265 269 267 259 262 269 272 268 268 244 227 236 245 246 241 218 224 235 225 233 232 231 233 233 235 236 238 238 237
348 343 345 346 343 339 335 329 325 317 307 301 298 287 283 287 287 279 270 273 272 277 280 282 284 283 275 270 270 272 270 268 268 265 261 260 259 258 257 254 251 253 265 265 265 263 263 265 269 266 266 272 271 268 263 271 265 265 266 267 266 270 268 273 275 271 194 217 238 246 251 215 211 233 230 230 227 226 223 228 229 235 237 237 237
348 344 345 336 332 328 324 321 317 312 307 300 304 307 300 287 295 292 281 275 275 273 275 278 280 281 282 280 274 270 269 267 268 270 267 263 260 258 257 256 256 254 251 252 262 268 264 267 268 267 269 268 276 269 268 268 269 268 264 264 264 264 267 265 266 271 255 186 232 245 254 219 208 232 240 233 226 225 224 224 229 232 234 236 237
332 345 341 338 338 333 330 325 320 317 313 308 310 309 310 310 301 302 295 283 282 279 279 278 280 282 282 283 282 273 267 267 269 268 270 271 265 260 259 260 259 256 256 257 256 259 267 267 269 270 265 273 273 271 263 263 264 265 266 265 262 262 261 262 265 270 266 200 234 253 259 242 197 232 240 236 224 226 227 228 229 231 235 237 238
342 338 337 338 331 332 326 318 310 307 307 311 314 316 317 316 315 315 304 299 290 283 282 282 282 284 282 285 287 286 280 271 266 270 272 271 274 273 271 264 262 259 260 259 258 258 256 258 263 268 272 269 269 271 266 261 261 260 262 262 261 261 258 258 265 268 271 213 233 264 268 252 205 233 243 238 216 229 225 226 229 233 237 241 242
334 330 326 327 323 317 315 313 310 307 304 307 314 317 318 318 319 322 314 305 297 290 287 283 283 284 285 282 285 286 288 284 276 274 276 278 277 278 273 270 264 261 255 252 252 253 253 254 256 258 262 263 265 267 266 260 255 256 253 256 258 259 262 266 267 263 266 254 250 249 263 265 185 233 246 238 226 232 224 230 232 235 239 243 246
324 317 316 317 320 320 316 317 317 312 310 311 315 318 320 320 321 321 317 312 309 304 300 297 291 289 287 287 288 291 290 289 289 291 290 289 286 284 283 280 278 271 262 253 253 240 245 250 250 252 255 254 251 254 256 254 255 255 256 256 256 258 262 261 258 255 256 248 231 227 255 262 232 239 256 233 232 245 233 225 233 237 241 244 247
329 326 324 325 322 320 319 320 318 313 311 311 314 316 316 316 316 312 311 308 304 304 303 304 300 295 294 290 289 289 294 295 301 302 304 303 298 295 295 295 292 289 284 279 271 262 249 245 248 248 249 252 254 258 261 261 260 258 260 258 253 250 252 257 256 250 249 242 225 222 243 259 242 234 252 240 227 243 240 232 229 235 240 245 247
325 317 315 318 315 311 311 310 311 309 307 310 311 312 314 316 317 315 313 311 309 309 306 303 301 296 291 290 290 295 302 305 309 310 310 312 310 308 303 298 296 294 290 288 284 276 271 274 275 273 273 272 269 266 265 267 267 265 262 261 262 261 254 246 259 251 254 239 229 211 238 246 251 218 245 251 239 240 241 239 235 233 236 244 247
309 305 311 313 310 306 302 303 305 307 307 308 310 312 314 317 318 314 315 315 312 309 308 305 302 300 305 311 316 315 313 310 311 312 312 311 303 298 296 294 293 293 294 301 301 299 297 292 285 281 277 270 267 265 262 258 256 256 255 256 257 256 261 261 261 263 259 246 229 199 233 246 242 225 226 254 252 242 223 230 235 232 233 231 239